Weather History for Madison, WI

Change the Weather History Date:

Saturday, July 5, 2014

  Actual Average Record
Temperature  
Mean Temperature 68 °F 71 °F  
Max Temperature 77 °F 82 °F 104 °F (2012)
Min Temperature 59 °F 61 °F 40 °F (1972)
Degree Days  
Heating Degree Days 0 0  
Month to date heating degree days 3 0  
Since 1 June heating degree days 12 60  
Since 1 July heating degree days 3 0  
Cooling Degree Days 3 7  
Month to date cooling degree days 13 33  
Year to date cooling degree days 246 183  
Since 1 June cooling degree days 195 153  
Growing Degree Days 18 (Base 50)    
Moisture  
Dew Point 56 °F    
Average Humidity 67    
Maximum Humidity 80    
Minimum Humidity 53    
Precipitation  
Precipitation 0.00 in 0.14 in 3.75 in (1993)
Month to date precipitation 0.01 0.69  
Year to date precipitation 21.31 17.06  
Snow  
Snow 0.00 in 0.00 in 0.00 in ()
Month to date snowfall 0.0 0.0  
Since 1 June snowfall 0.0 0.0  
Since 1 July snowfall 0.0 0.0  
Snow Depth 0.00 in    
Sea Level Pressure  
Sea Level Pressure 30.14 in    
Wind  
Wind Speed 10 mph (SSW)    
Max Wind Speed 20 mph    
Max Gust Speed 26 mph    
Visibility 10 miles    
Events      
T = Trace of Precipitation, MM = Missing Value Source: NWS Daily Summary

Daily Weather History Graph

Daily Weather History Graph

Search for Another Location

Airport:

Trip Planner

Search our weather history database for the weather conditions in past years. The results will help you decide how hot, cold, wet, or windy it might be!

Date:

Astronomy

Jul. 05, 2014 Rise Set
Actual Time 5:23 AM CDT 8:39 PM CDT
Civil Twilight 4:48 AM CDT 9:14 PM CDT
Nautical Twilight 4:03 AM CDT 10:00 PM CDT
Astronomical Twilight 3:07 AM CDT 10:55 PM CDT
Moon 1:31 PM CDT (7/5) 12:19 AM CDT (7/5)
Length of Visible Light 16h 25m
Length of Day
15h 15m
First Quarter, 52% of the Moon is Illuminated
Jul 5
First Quarter
Jul 12
Full
Jul 18
Last Quarter
Jul 26
New
Aug 3
First Quarter

Hourly Weather History & Observations

Time (CDT) Temp. Dew Point Humidity Pressure Visibility Wind Dir Wind Speed Gust Speed Precip Events Conditions
12:53 AM 64.9 °F 54.0 °F 68% 30.24 in 10.0 mi South 6.9 mph - N/A   Clear
1:53 AM 64.0 °F 54.0 °F 70% 30.24 in 10.0 mi South 6.9 mph - N/A   Clear
2:53 AM 63.0 °F 54.0 °F 72% 30.23 in 10.0 mi South 5.8 mph - N/A   Clear
3:53 AM 59.0 °F 54.0 °F 83% 30.23 in 10.0 mi Calm Calm - N/A   Clear
4:53 AM 62.1 °F 54.0 °F 75% 30.22 in 10.0 mi South 8.1 mph - N/A   Clear
5:53 AM 61.0 °F 53.1 °F 75% 30.18 in 10.0 mi South 9.2 mph - N/A   Scattered Clouds
6:53 AM 63.0 °F 54.0 °F 72% 30.21 in 10.0 mi South 8.1 mph - N/A   Mostly Cloudy
7:53 AM 64.9 °F 55.0 °F 70% 30.22 in 10.0 mi South 5.8 mph - N/A   Overcast
8:53 AM 66.9 °F 54.0 °F 63% 30.22 in 10.0 mi South 6.9 mph - N/A   Overcast
9:53 AM 69.1 °F 54.0 °F 58% 30.20 in 10.0 mi SSW 10.4 mph - N/A   Overcast
10:53 AM 73.9 °F 55.9 °F 53% 30.17 in 10.0 mi South 10.4 mph 19.6 mph N/A   Mostly Cloudy
11:53 AM 75.9 °F 57.0 °F 52% 30.15 in 10.0 mi SSW 11.5 mph 19.6 mph N/A   Mostly Cloudy
12:53 PM 75.9 °F 57.9 °F 54% 30.14 in 10.0 mi South 18.4 mph 23.0 mph N/A   Mostly Cloudy
1:53 PM 75.0 °F 57.9 °F 55% 30.13 in 10.0 mi SSW 11.5 mph 21.9 mph N/A   Mostly Cloudy
2:53 PM 75.0 °F 57.0 °F 53% 30.12 in 10.0 mi SW 13.8 mph 24.2 mph N/A   Mostly Cloudy
3:53 PM 75.0 °F 57.9 °F 55% 30.09 in 10.0 mi South 13.8 mph 20.7 mph N/A   Mostly Cloudy
4:53 PM 73.9 °F 57.9 °F 57% 30.08 in 10.0 mi SSW 8.1 mph - N/A   Mostly Cloudy
5:53 PM 73.9 °F 57.9 °F 57% 30.07 in 10.0 mi SW 8.1 mph - N/A   Mostly Cloudy
6:53 PM 73.0 °F 57.9 °F 59% 30.04 in 10.0 mi South 11.5 mph - N/A   Mostly Cloudy
7:53 PM 71.1 °F 57.9 °F 63% 30.04 in 10.0 mi South 18.4 mph 24.2 mph N/A   Mostly Cloudy
8:53 PM 69.1 °F 57.0 °F 65% 30.03 in 10.0 mi South 6.9 mph - N/A   Scattered Clouds
9:53 PM 68.0 °F 57.0 °F 68% 30.04 in 10.0 mi SSW 6.9 mph - N/A   Overcast
10:53 PM 69.1 °F 57.0 °F 65% 30.02 in 10.0 mi South 11.5 mph 20.7 mph N/A   Overcast
11:08 PM 69.1 °F 57.9 °F 68% 30.03 in 10.0 mi South 9.2 mph 18.4 mph N/A   Overcast
11:53 PM 69.1 °F 57.9 °F 68% 30.01 in 10.0 mi South 11.5 mph - N/A   Overcast